Showing default

IRIDIUM 125, 42964

Orbit data source: Space-Track

IRIDIUM 125, 42964 is a payload satellite owned by Iridium (US) in LEO that was launched on Mon, 09 Oct 2017 UTC via an FALCON 9 launch vehicle from the Air Force Western Test Range (AFWTR). Payload-class satellites include a variety of spacecraft equipped with specific instruments for various scientific and technological missions. These include communications satellites like Starlink; space stations such as the ISS; scientific satellites like the Hubble; Earth observation satellites from companies like Planet Labs, Umbra, and HawkEye 360; GPS; miniature CubeSats for education and research; and military/defense satellites.

Loading next visibility...
Identifier
42964, 2017-061K
Orbit
LEO
Country
Flag of USUS
Related business
Manufacturer
OATK SSG Gilbert
Mission
Operational Commercial Communications
Bus & Motor
ELITEBUS, Unknown motor
Mass
860 kg wet, 700 kg dry
Launch date (UTC)
2017-10-09 (8 years ago)
Launch vehicle
FALCON 9
Launch site
Air Force Western Test Range (AFWTR)
Object type
Payload
Rocket body
Debris
Shape & HBR
Trap Box + 2 Pan, 4.8 m
Radar Cross Section
10.154 m², Large (>1 m²)

Expand to show TLE details & history
Last TLE update: 7 hours ago

TLE from 7 hours ago
0 IRIDIUM 125
1 42964U 17061K   26038.12892014  .00000116  00000-0  34398-4 0  9995
2 42964  86.3924  79.7628 0002734  86.2099 273.9409 14.34217266436214
Epoch: 2026-02-07T03:05Z
TLE epoch observation values (Epoch: 2026-02-07T03:05:38.700Z)
Latitude
-0.00004°
Longitude
-103.90533°
Altitude
780.586 km
Speed
7.464 km/s
True Right ascension
05h 19m 03s
True Declination
0° 00' 00"
Sunlit
Object was in full shadow at epoch
Visualization orbit readout
Latitude
Unknown
Longitude
Unknown
Altitude
Unknown
Speed
Unknown
Apparent Right ascension
Unknown
Apparent Declination
Unknown
Sunlit
N/A
Visualization observer readout
Local Sidereal Time
12:35:17
Azimuth
Unknown
Elevation
Unknown
Doppler factor
Unknown
Orbital elements
Apogee altitude
776.589 km
Perigee altitude
772.678 km
Semi-major axis
7,152.77 km
Eccentricity
0.00027
Inclination
86.3924°
RAAN
79.7628°
Arg. of periapsis
86.2099°
True anomaly
273.90964°
Mean anomaly
273.9409°
Eccentric anomaly
273.92527°
Mean motion
3.58783 °/min
Orbital period
100.34 mins
BSTAR
0.000034398
Loading maneuver chart data...
Computing Atmospheric mass density...
Loading historical data...
Loading historical data...
Loading historical data...
Loading historical data...
Loading historical data...
Loading historical data...
Loading historical data...

Documentation

Showing up to 5 results
|